Home > Weather > Napa > Past weeks

Flag for U.S.A. Weather for the Past 2 Weeks in Napa, California, U.S.A.

Now
55 °F

Sunny.


Feels Like: 55 °F
Forecast: 46 / 72 °F
Wind: No wind

Location: Napa County Airport

Current Time: Feb 7, 2016 at 10:50:29 AM

Latest Report: Feb 7, 2016 at 9:54 AM


Visibility: 10 mi

Pressure: 30.26 "Hg

Humidity: 77%

Dew point: 48 °F

Location of NapaLocation

Historic Weather in Napa — Graph

°F

Napa Temperature Yesterday

Maximum temperature yesterday: 62 °F (at 1:54 PM)
Minimum temperature yesterday: 35 °F (at 6:54 AM)
Average temperature yesterday: 49 °F

High & Low Weather Summary for the Past Weeks

 TemperatureHumidityPressure
High122 °F (Jan 31, 4:54 PM)100% (Jan 24, 1:54 AM)30.45 "Hg (Jan 24, 1:54 AM)
Low35 °F (Feb 6, 6:54 AM)4% (Jan 31, 4:54 PM)29.72 "Hg (Jan 31, 2:54 PM)
Average52 °F80%30.21 "Hg
* Reported Jan 23 9:54 AM — Feb 7 9:54 AM, Napa, Weather by CustomWeather, © 2016

Note: Actual official high and low records may vary slightly from our data, if they occured in-between our weather recording intervals... More about our weather records

Advertising

Napa Weather History for the Previous 24 Hours

 ConditionsComfort  
Time TempWeatherWind HumidityBarometerVisibility
9:54 AM
Sun, Feb 7
55 °FSunny.No wind77%30.26 "Hg10 mi
8:54 AM50 °FSunny.3 mph89%30.27 "Hg10 mi
7:54 AM39 °FSunny.No wind100%30.26 "Hg10 mi
6:54 AM38 °FClear.No wind97%30.25 "Hg10 mi
6:04 AM40 °FFog.No wind97%30.27 "Hg1 mi
5:57 AM39 °FFog.No wind96%30.28 "Hg1 mi
4:54 AM41 °FClear.No wind96%30.25 "Hg10 mi
3:54 AM40 °FClear.No wind93%30.25 "Hg10 mi
2:54 AM42 °FClear.3 mph92%30.27 "Hg10 mi
1:54 AM42 °FClear.No wind92%30.28 "Hg10 mi
12:54 AM42 °FClear.No wind92%30.29 "Hg10 mi
11:54 PM
Sat, Feb 6
45 °FClear.No wind90%30.30 "Hg10 mi
10:54 PM46 °FClear.6 mph89%30.31 "Hg10 mi
9:54 PM47 °FClear.No wind90%30.31 "Hg10 mi
8:54 PM49 °FClear.5 mph86%30.31 "Hg10 mi
7:54 PM51 °FClear.No wind83%30.29 "Hg10 mi
6:54 PM50 °FClear.No wind83%30.29 "Hg10 mi
5:54 PM56 °FClear.3 mph67%30.29 "Hg10 mi
4:54 PM60 °FSunny.No wind62%30.29 "Hg10 mi
3:54 PM62 °FSunny.6 mph60%30.30 "Hg10 mi
2:54 PM62 °FSunny.7 mph58%30.31 "Hg10 mi
1:54 PM62 °FSunny.3 mph58%30.32 "Hg10 mi
12:54 PM60 °FSunny.5 mph56%30.35 "Hg10 mi
11:54 AM59 °FSunny.No wind60%30.39 "Hg10 mi
10:54 AM55 °FSunny.5 mph72%30.42 "Hg10 mi
Weather by CustomWeather, © 2016

See weather overviewHow to use our weather pages